Retour au catalogue

STARLINK-32024

ActifCommunicationsVLEO
NORAD 60112·PAYLOAD·🇺🇸 United States

Lancé Jun 23, 2024 depuis Cape Canaveral Space Force Station

Loading…

Prochains Passages (prochaines 24 heures)

TLE

FraisSource: CelesTrak SupGP

Époque: Sep 14, 2026, 21:23 UTC

1 60112C 24117X   26257.89145833  .00048610  00000+0  14355-2 0  2573
2 60112  53.1567 236.1907 0001215 107.6160 259.0885 15.34382338    15

Suivez STARLINK-32024 en temps réel avec AllMySat

Download on the App Store